| time (UTC) | temp F | wind direction | speed MPH | gust MPH | rain 1hr in | rain 24hr in | rain mn in | humidity % | barometer mb |
| 20260510095022 | 59 | 45 | 5.0 | 9.0 | 0.00 | 0.01 | 0.00 | 51 | 1014.3 |
| 20260510094022 | 59 | 45 | 8.0 | 12.0 | 0.00 | 0.01 | 0.00 | 51 | 1014.4 |
| 20260510093002 | 59 | 45 | 6.0 | 10.0 | 0.00 | 0.01 | 0.00 | 50 | 1014.4 |
| 20260510092002 | 60 | 23 | 10.0 | 15.0 | 0.00 | 0.01 | 0.00 | 51 | 1014.4 |
| 20260510091023 | 60 | 23 | 11.0 | 14.0 | 0.00 | 0.01 | 0.00 | 51 | 1014.3 |
| 20260510090023 | 61 | 45 | 4.0 | 6.0 | 0.00 | 0.01 | 0.00 | 55 | 1014.1 |
| 20260510085002 | 61 | 23 | 5.0 | 9.0 | 0.00 | 0.01 | 0.00 | 56 | 1013.9 |
| 20260510084002 | 62 | 45 | 7.0 | 11.0 | 0.00 | 0.01 | 0.00 | 58 | 1013.6 |
| 20260510083002 | 62 | 68 | 9.0 | 14.0 | 0.00 | 0.01 | 0.00 | 58 | 1013.6 |
| 20260510082022 | 62 | 45 | 8.0 | 12.0 | 0.00 | 0.01 | 0.00 | 58 | 1013.5 |
| 20260510081022 | 62 | 23 | 6.0 | 10.0 | 0.00 | 0.01 | 0.00 | 58 | 1013.2 |
| 20260510080002 | 63 | 45 | 6.0 | 10.0 | 0.00 | 0.01 | 0.00 | 59 | 1013.2 |
| 20260510075002 | 63 | 23 | 9.0 | 10.0 | 0.00 | 0.01 | 0.00 | 59 | 1013.4 |
| 20260510074002 | 63 | 0 | 3.0 | 4.0 | 0.00 | 0.01 | 0.00 | 62 | 1013.2 |
| 20260510073002 | 63 | 45 | 2.0 | 2.0 | 0.00 | 0.01 | 0.00 | 62 | 1013.0 |
| 20260510072002 | 63 | 45 | 3.0 | 4.0 | 0.00 | 0.01 | 0.00 | 62 | 1013.0 |
| 20260510071002 | 63 | 68 | 1.0 | 2.0 | 0.00 | 0.01 | 0.00 | 62 | 1012.8 |
| 20260510070002 | 64 | 23 | 3.0 | 4.0 | 0.00 | 0.01 | 0.00 | 59 | 1012.8 |
| 20260510065004 | 64 | 0 | 3.0 | 4.0 | 0.00 | 0.01 | 0.00 | 59 | 1012.8 |
| 20260510064003 | 64 | 45 | 2.0 | 3.0 | 0.00 | 0.01 | 0.00 | 60 | 1012.6 |
| 20260510063005 | 64 | 68 | 3.0 | 4.0 | 0.00 | 0.01 | 0.00 | 58 | 1012.2 |
| 20260510062004 | 65 | 68 | 3.0 | 4.0 | 0.00 | 0.01 | 0.00 | 56 | 1012.4 |
| 20260510061044 | 65 | 68 | 6.0 | 8.0 | 0.00 | 0.01 | 0.00 | 56 | 1012.3 |
| 20260510060040 | 66 | 68 | 2.0 | 3.0 | 0.00 | 0.01 | 0.00 | 56 | 1012.5 |
| 20260510055004 | 66 | 68 | 3.0 | 5.0 | 0.00 | 0.01 | 0.00 | 55 | 1012.4 |
| 20260510054004 | 66 | 90 | 3.0 | 3.0 | 0.00 | 0.01 | 0.00 | 55 | 1012.3 |
| 20260510053005 | 67 | 68 | 6.0 | 10.0 | 0.00 | 0.01 | 0.00 | 55 | 1012.0 |
| 20260510052004 | 67 | 68 | 2.0 | 3.0 | 0.00 | 0.01 | 0.00 | 57 | 1012.1 |
| 20260510051004 | 67 | 90 | 7.0 | 9.0 | 0.00 | 0.01 | 0.00 | 58 | 1012.1 |
| 20260510050129 | 67 | 0.0 | 1.0 | 0.00 | 0.01 | 0.00 | 60 | 1011.8 | |
| 20260510045102 | 68 | 158 | 3.0 | 5.0 | 0.00 | 0.01 | 0.01 | 59 | 1011.5 |
| 20260510044102 | 68 | 45 | 2.0 | 3.0 | 0.00 | 0.01 | 0.01 | 59 | 1010.8 |
| 20260510043102 | 68 | 45 | 2.0 | 4.0 | 0.00 | 0.01 | 0.01 | 59 | 1010.2 |
| 20260510042103 | 67 | 45 | 2.0 | 4.0 | 0.00 | 0.01 | 0.01 | 60 | 1010.1 |
| 20260510041122 | 67 | 23 | 2.0 | 3.0 | 0.00 | 0.01 | 0.01 | 61 | 1009.9 |
| 20260510035102 | 67 | 68 | 2.0 | 3.0 | 0.00 | 0.01 | 0.01 | 61 | 1009.7 |
| 20260510034102 | 67 | 45 | 2.0 | 3.0 | 0.00 | 0.01 | 0.01 | 61 | 1009.7 |
| 20260510033102 | 67 | 68 | 1.0 | 3.0 | 0.00 | 0.01 | 0.01 | 64 | 1009.7 |
| 20260510032102 | 67 | 90 | 3.0 | 3.0 | 0.00 | 0.01 | 0.01 | 62 | 1009.6 |
| 20260510031102 | 68 | 293 | 1.0 | 1.0 | 0.00 | 0.01 | 0.01 | 63 | 1009.7 |
| 20260510025122 | 70 | 0 | 5.0 | 6.0 | 0.00 | 0.01 | 0.01 | 55 | 1009.6 |
| 20260510024122 | 70 | 338 | 4.0 | 6.0 | 0.00 | 0.01 | 0.01 | 55 | 1009.4 |
| 20260510023102 | 70 | 23 | 2.0 | 3.0 | 0.00 | 0.01 | 0.01 | 54 | 1008.9 |
| 20260510022102 | 70 | 45 | 3.0 | 5.0 | 0.00 | 0.01 | 0.01 | 53 | 1008.4 |
| 20260510021102 | 71 | 23 | 6.0 | 8.0 | 0.00 | 0.01 | 0.01 | 53 | 1008.4 |
| 20260510015102 | 71 | 0 | 6.0 | 8.0 | 0.00 | 0.01 | 0.01 | 51 | 1008.2 |
| 20260510014101 | 72 | 0 | 8.0 | 11.0 | 0.00 | 0.01 | 0.01 | 51 | 1007.8 |
| 20260510013102 | 71 | 0 | 4.0 | 6.0 | 0.00 | 0.01 | 0.01 | 52 | 1007.6 |
| 20260510012102 | 72 | 45 | 3.0 | 4.0 | 0.00 | 0.01 | 0.01 | 52 | 1007.3 |
| 20260510011101 | 73 | 45 | 3.0 | 4.0 | 0.00 | 0.01 | 0.01 | 50 | 1007.3 |
| 20260510010106 | 74 | 23 | 3.0 | 5.0 | 0.00 | 0.01 | 0.01 | 48 | 1007.2 |
| 20260510005101 | 74 | 45 | 4.0 | 8.0 | 0.00 | 0.01 | 0.01 | 47 | 1007.1 |
| 20260510004004 | 75 | 338 | 11.0 | 15.0 | 0.00 | 0.01 | 0.01 | 46 | 1007.0 |
| 20260510003005 | 75 | 0 | 12.0 | 16.0 | 0.00 | 0.01 | 0.01 | 46 | 1006.7 |
| 20260510002004 | 76 | 338 | 9.0 | 12.0 | 0.00 | 0.01 | 0.01 | 45 | 1006.6 |
| 20260510001004 | 76 | 338 | 12.0 | 15.0 | 0.00 | 0.01 | 0.01 | 43 | 1006.4 |
| 20260510000053 | 77 | 0 | 16.0 | 20.0 | 0.00 | 0.01 | 0.01 | 42 | 1006.5 |
| 20260509235004 | 78 | 315 | 8.0 | 11.0 | 0.00 | 0.01 | 0.01 | 44 | 1006.0 |
| 20260509234024 | 78 | 338 | 9.0 | 11.0 | 0.00 | 0.01 | 0.01 | 43 | 1005.9 |
| 20260509233004 | 78 | 338 | 10.0 | 12.0 | 0.00 | 0.01 | 0.01 | 43 | 1006.0 |
| 20260509232003 | 79 | 293 | 4.0 | 5.0 | 0.00 | 0.01 | 0.01 | 42 | 1006.0 |
| 20260509231003 | 79 | 270 | 6.0 | 9.0 | 0.00 | 0.01 | 0.01 | 39 | 1005.9 |
| 20260509230009 | 79 | 270 | 7.0 | 11.0 | 0.00 | 0.01 | 0.01 | 40 | 1005.8 |
| 20260509225003 | 79 | 270 | 4.0 | 7.0 | 0.00 | 0.01 | 0.01 | 42 | 1005.8 |
| 20260509224004 | 80 | 270 | 4.0 | 7.0 | 0.00 | 0.01 | 0.01 | 42 | 1005.8 |
| 20260509223004 | 80 | 270 | 6.0 | 8.0 | 0.00 | 0.01 | 0.01 | 40 | 1005.7 |
| 20260509222024 | 80 | 270 | 6.0 | 9.0 | 0.00 | 0.01 | 0.01 | 39 | 1005.7 |
| 20260509221004 | 81 | 248 | 8.0 | 11.0 | 0.00 | 0.01 | 0.01 | 39 | 1005.6 |
| 20260509220009 | 82 | 270 | 11.0 | 16.0 | 0.00 | 0.01 | 0.01 | 39 | 1005.6 |
| 20260509215024 | 81 | 270 | 10.0 | 12.0 | 0.00 | 0.01 | 0.01 | 39 | 1005.6 |
| 20260509214004 | 81 | 293 | 7.0 | 9.0 | 0.00 | 0.01 | 0.01 | 39 | 1005.7 |
| 20260509213044 | 82 | 225 | 6.0 | 9.0 | 0.00 | 0.01 | 0.01 | 42 | 1005.6 |
| 20260509212003 | 83 | 270 | 8.0 | 12.0 | 0.00 | 0.01 | 0.01 | 38 | 1005.8 |
| 20260509211003 | 82 | 270 | 8.0 | 20.0 | 0.00 | 0.01 | 0.01 | 40 | 1005.7 |
| 20260509210008 | 83 | 270 | 10.0 | 13.0 | 0.00 | 0.01 | 0.01 | 39 | 1005.7 |
| 20260509205003 | 82 | 270 | 7.0 | 10.0 | 0.00 | 0.01 | 0.01 | 41 | 1005.8 |
| 20260509204003 | 81 | 270 | 4.0 | 6.0 | 0.00 | 0.01 | 0.01 | 43 | 1005.8 |
| 20260509203003 | 82 | 248 | 6.0 | 9.0 | 0.00 | 0.01 | 0.01 | 42 | 1006.0 |
| 20260509202003 | 82 | 270 | 10.0 | 11.0 | 0.00 | 0.01 | 0.01 | 40 | 1006.0 |
| 20260509201004 | 82 | 248 | 11.0 | 14.0 | 0.00 | 0.01 | 0.01 | 43 | 1006.1 |
| 20260509200008 | 82 | 248 | 10.0 | 13.0 | 0.00 | 0.01 | 0.01 | 44 | 1006.2 |
| 20260509195005 | 81 | 248 | 9.0 | 11.0 | 0.00 | 0.01 | 0.01 | 43 | 1006.3 |
| 20260509194003 | 82 | 248 | 9.0 | 14.0 | 0.00 | 0.01 | 0.01 | 45 | 1006.4 |
| 20260509193003 | 81 | 270 | 8.0 | 13.0 | 0.00 | 0.01 | 0.01 | 44 | 1006.6 |
| 20260509192003 | 81 | 270 | 8.0 | 10.0 | 0.00 | 0.01 | 0.01 | 46 | 1006.6 |
| 20260509191003 | 80 | 248 | 9.0 | 15.0 | 0.00 | 0.01 | 0.01 | 48 | 1006.8 |
| 20260509190011 | 80 | 270 | 8.0 | 11.0 | 0.00 | 0.01 | 0.01 | 46 | 1006.8 |
| 20260509185003 | 80 | 248 | 10.0 | 15.0 | 0.00 | 0.01 | 0.01 | 49 | 1006.9 |
| 20260509184003 | 80 | 225 | 12.0 | 16.0 | 0.00 | 0.01 | 0.01 | 48 | 1006.9 |
| 20260509183004 | 79 | 225 | 7.0 | 11.0 | 0.00 | 0.01 | 0.01 | 53 | 1006.9 |
| 20260509182003 | 79 | 270 | 9.0 | 12.0 | 0.00 | 0.01 | 0.01 | 48 | 1007.0 |
| 20260509181003 | 79 | 225 | 10.0 | 14.0 | 0.00 | 0.01 | 0.01 | 50 | 1007.1 |
| 20260509180008 | 79 | 270 | 10.0 | 13.0 | 0.00 | 0.01 | 0.01 | 50 | 1007.2 |
| 20260509175003 | 78 | 248 | 10.0 | 12.0 | 0.00 | 0.01 | 0.01 | 52 | 1007.3 |
| 20260509174004 | 77 | 270 | 8.0 | 9.0 | 0.00 | 0.01 | 0.01 | 52 | 1007.4 |
| 20260509173003 | 77 | 270 | 8.0 | 11.0 | 0.00 | 0.01 | 0.01 | 54 | 1007.5 |
| 20260509172003 | 76 | 270 | 8.0 | 10.0 | 0.00 | 0.01 | 0.01 | 53 | 1007.6 |
| 20260509171003 | 76 | 248 | 9.0 | 10.0 | 0.00 | 0.01 | 0.01 | 55 | 1007.7 |
| 20260509170004 | 76 | 248 | 6.0 | 8.0 | 0.00 | 0.01 | 0.01 | 56 | 1007.7 |
| 20260509165003 | 74 | 248 | 6.0 | 8.0 | 0.00 | 0.01 | 0.01 | 57 | 1007.9 |
| 20260509164003 | 75 | 248 | 8.0 | 13.0 | 0.00 | 0.01 | 0.01 | 55 | 1007.8 |
| 20260509163023 | 74 | 248 | 8.0 | 12.0 | 0.00 | 0.01 | 0.01 | 57 | 1007.8 |
| 20260509162003 | 74 | 225 | 7.0 | 10.0 | 0.00 | 0.01 | 0.01 | 58 | 1007.7 |
| 20260509161003 | 73 | 225 | 7.0 | 9.0 | 0.00 | 0.01 | 0.01 | 61 | 1007.6 |
| 20260509160003 | 73 | 248 | 8.0 | 11.0 | 0.00 | 0.01 | 0.01 | 59 | 1007.6 |
| 20260509155023 | 72 | 248 | 6.0 | 9.0 | 0.00 | 0.01 | 0.01 | 61 | 1007.6 |
| 20260509154003 | 71 | 270 | 8.0 | 13.0 | 0.00 | 0.01 | 0.01 | 61 | 1007.5 |
| 20260509153003 | 71 | 248 | 11.0 | 13.0 | 0.00 | 0.01 | 0.01 | 62 | 1007.6 |
| 20260509152002 | 71 | 270 | 8.0 | 11.0 | 0.00 | 0.01 | 0.01 | 68 | 1007.7 |
| 20260509151023 | 70 | 270 | 10.0 | 12.0 | 0.00 | 0.01 | 0.01 | 65 | 1007.5 |
| 20260509150024 | 69 | 270 | 12.0 | 15.0 | 0.00 | 0.01 | 0.01 | 66 | 1007.4 |
| 20260509145002 | 68 | 270 | 9.0 | 12.0 | 0.00 | 0.01 | 0.01 | 69 | 1007.3 |
| 20260509144003 | 67 | 248 | 12.0 | 17.0 | 0.00 | 0.01 | 0.01 | 70 | 1007.4 |
| 20260509143003 | 66 | 270 | 10.0 | 11.0 | 0.00 | 0.01 | 0.01 | 72 | 1007.5 |
| 20260509142002 | 65 | 270 | 6.0 | 9.0 | 0.00 | 0.01 | 0.01 | 74 | 1007.4 |
| 20260509141043 | 64 | 225 | 7.0 | 11.0 | 0.00 | 0.01 | 0.01 | 75 | 1007.4 |
| 20260509140008 | 64 | 270 | 9.0 | 12.0 | 0.00 | 0.01 | 0.01 | 76 | 1007.5 |
| 20260509135002 | 63 | 248 | 7.0 | 11.0 | 0.00 | 0.01 | 0.01 | 78 | 1007.3 |
| 20260509134003 | 62 | 270 | 8.0 | 10.0 | 0.00 | 0.01 | 0.01 | 79 | 1007.3 |
| 20260509133007 | 61 | 270 | 8.0 | 10.0 | 0.00 | 0.01 | 0.01 | 81 | 1007.2 |
| 20260509132002 | 60 | 270 | 6.0 | 9.0 | 0.00 | 0.01 | 0.01 | 83 | 1007.3 |
| 20260509131043 | 59 | 248 | 6.0 | 9.0 | 0.00 | 0.01 | 0.01 | 85 | 1007.3 |
| 20260509130003 | 58 | 248 | 6.0 | 9.0 | 0.00 | 0.01 | 0.01 | 87 | 1007.3 |
| 20260509125002 | 57 | 248 | 6.0 | 10.0 | 0.00 | 0.01 | 0.01 | 88 | 1007.2 |
| 20260509124002 | 57 | 248 | 5.0 | 13.0 | 0.00 | 0.01 | 0.01 | 88 | 1007.0 |
| 20260509123002 | 56 | 248 | 7.0 | 10.0 | 0.00 | 0.01 | 0.01 | 89 | 1006.8 |
| 20260509122002 | 56 | 248 | 3.0 | 7.0 | 0.00 | 0.01 | 0.01 | 90 | 1006.6 |
| 20260509121002 | 55 | 248 | 5.0 | 8.0 | 0.00 | 0.01 | 0.01 | 91 | 1006.6 |
| 20260509120002 | 54 | 248 | 3.0 | 6.0 | 0.00 | 0.01 | 0.01 | 92 | 1006.4 |
| 20260509115023 | 54 | 225 | 3.0 | 4.0 | 0.01 | 0.01 | 0.01 | 92 | 1006.3 |
| 20260509114002 | 54 | 225 | 3.0 | 5.0 | 0.01 | 0.01 | 0.01 | 93 | 1006.2 |
| 20260509113042 | 54 | 225 | 2.0 | 4.0 | 0.01 | 0.01 | 0.01 | 92 | 1006.1 |
| 20260509112002 | 54 | 248 | 3.0 | 5.0 | 0.01 | 0.01 | 0.01 | 93 | 1005.9 |
| 20260509111002 | 54 | 225 | 4.0 | 9.0 | 0.01 | 0.01 | 0.01 | 93 | 1006.0 |
| 20260509110002 | 54 | 225 | 5.0 | 7.0 | 0.01 | 0.01 | 0.01 | 94 | 1005.9 |
| 20260509105002 | 54 | 225 | 5.0 | 9.0 | 0.00 | 0.00 | 0.00 | 94 | 1005.6 |
| 20260509104002 | 54 | 203 | 4.0 | 8.0 | 0.00 | 0.00 | 0.00 | 95 | 1005.6 |
| 20260509103002 | 54 | 203 | 4.0 | 6.0 | 0.00 | 0.00 | 0.00 | 95 | 1005.7 |
| 20260509102002 | 54 | 180 | 4.0 | 5.0 | 0.00 | 0.00 | 0.00 | 95 | 1005.8 |
| 20260509101002 | 54 | 203 | 6.0 | 7.0 | 0.00 | 0.00 | 0.00 | 96 | 1005.9 |
| 20260509100043 | 55 | 203 | 5.0 | 7.0 | 0.00 | 0.00 | 0.00 | 96 | 1006.0 |